User: anonymous
Location: Leeds
(37.2390°N, 113.3580°W)
Time: 15:02:12
(UTC-06:00)
Language:

SL-08 RB Rocket - Orbit

View from above orbital plane
View from above orbital plane
View from above satellite
View from above satellite

Ground track
Ground track

The orbit data is extracted from the following two-line orbital elements,

1 26387U 00033D   14243.30200697  .00000335  00000-0  67780-4 0  5891
2 26387 098.0996 310.1713 0025987 337.9528 063.6564 14.67352495758100
Epoch (UTC): 31 August 2014 07:14:53
Eccentricity: 0.0025987
inclination: 98.0996°
perigee height: 651 km
apogee height: 688 km
right ascension of ascending node: 310.1713°
argument of perigee: 337.9528°
revolutions per day: 14.67352495
mean anomaly at epoch: 63.6564°
orbit number at epoch: 75810

The dashed part of the orbit path shows where the satellite is in the earth's shadow,  

DLR